SNEZKA Weather Reports


time (UTC)temp
F
wind
direction
speed
knots
gust
knots
rain 1hr
in
rain 24hr
in
rain mn
in
humidity
%
barometer
mb
20260508021942 36 260 7.8 0.0 0.00 0.00 0.00 99
20260508012058 36 220 1.7 0.0 0.00 0.00 0.00 99
20260508001958 36 260 6.1 0.0 0.00 0.00 0.00 99
20260507231958 36 250 10.4 0.0 0.00 0.00 0.00 99
20260507222300 36 320 1.7 12.2 0.00 0.00 0.00 99
20260507211959 36 250 4.3 0.0 0.00 0.00 0.00 99
20260507202000 37 260 6.1 0.0 0.00 0.00 0.00 99
20260507192101 37 280 13.9 0.0 0.00 0.00 0.00 99
20260507181957 39 260 7.8 0.0 0.00 0.00 0.00 99
20260507171958 39 240 7.8 0.0 0.00 0.00 0.00 99
20260507162259 39 250 7.8 0.0 0.00 0.00 0.00 99
20260507151958 39 230 7.8 19.1 0.00 0.00 0.00 99
20260507141959 41 260 10.4 22.6 0.00 0.00 0.00 99
20260507132101 39 300 6.1 0.0 0.00 0.00 0.00 99
20260507121958 41 270 7.8 17.4 0.00 0.00 0.00 99
20260507112027 39 260 7.8 19.1 0.00 0.00 0.00 99
20260507102158 39 220 13.9 25.2 0.00 0.00 0.00 99
20260507091959 39 230 10.4 25.2 0.00 0.00 0.00 99
20260507081958 39 280 10.4 22.6 0.00 0.00 0.00 99
20260507071958 39 240 13.9 25.2 0.00 0.00 0.00 99
20260507061958 39 240 12.2 20.9 0.00 0.00 0.00 99
20260507051958 41 310 6.1 0.0 0.00 0.00 0.00 99
20260507042202 39 210 6.1 0.0 0.00 0.00 0.00 99
20260507031958 41 220 10.4 20.9 0.00 0.00 0.00 99